TimeEST,TemperatureF,Dew PointF,Humidity,Sea Level PressureIn,VisibilityMPH,Wind Direction,Wind SpeedMPH,Gust SpeedMPH,PrecipitationIn,Events,Conditions,WindDirDegrees,DateUTC
12:20 AM,26.6,17.6,69,30.33,10.0,NNW,12.7,-,N/A,,Scattered Clouds,330,2013-01-18 05:20:00
12:53 AM,25.0,15.1,66,30.38,10.0,NW,13.8,-,N/A,,Clear,320,2013-01-18 05:53:00
1:53 AM,24.1,10.0,55,30.43,10.0,NNW,12.7,-,N/A,,Clear,330,2013-01-18 06:53:00
2:53 AM,21.9,10.9,63,30.46,10.0,NNW,6.9,-,N/A,,Clear,330,2013-01-18 07:53:00
3:53 AM,21.0,10.9,65,30.48,10.0,NW,3.5,-,N/A,,Clear,310,2013-01-18 08:53:00
4:53 AM,18.0,10.0,71,30.48,10.0,Calm,Calm,-,N/A,,Clear,0,2013-01-18 09:53:00
5:53 AM,17.1,10.9,77,30.50,10.0,Calm,Calm,-,N/A,,Clear,0,2013-01-18 10:53:00
6:53 AM,18.0,12.0,78,30.51,10.0,Calm,Calm,-,N/A,,Clear,0,2013-01-18 11:53:00
7:53 AM,16.0,10.9,81,30.52,10.0,Calm,Calm,-,N/A,,Clear,0,2013-01-18 12:53:00
8:53 AM,21.9,15.1,75,30.53,10.0,Calm,Calm,-,N/A,,Clear,0,2013-01-18 13:53:00
9:53 AM,25.0,15.1,66,30.55,10.0,WSW,4.6,-,N/A,,Clear,250,2013-01-18 14:53:00
10:53 AM,28.0,14.0,56,30.54,10.0,Variable,4.6,-,N/A,,Clear,0,2013-01-18 15:53:00
11:53 AM,28.9,14.0,54,30.52,10.0,SW,9.2,-,N/A,,Clear,220,2013-01-18 16:53:00
12:53 PM,30.9,15.1,52,30.49,10.0,SW,9.2,-,N/A,,Clear,230,2013-01-18 17:53:00
1:53 PM,32.0,17.1,54,30.46,10.0,SSW,9.2,-,N/A,,Clear,210,2013-01-18 18:53:00
2:53 PM,34.0,17.1,50,30.44,10.0,SSW,13.8,-,N/A,,Clear,210,2013-01-18 19:53:00
3:53 PM,34.0,18.0,52,30.43,10.0,South,12.7,-,N/A,,Clear,190,2013-01-18 20:53:00
4:53 PM,33.1,17.1,52,30.42,10.0,SSW,12.7,-,N/A,,Clear,200,2013-01-18 21:53:00
5:53 PM,32.0,18.0,56,30.40,10.0,South,9.2,-,N/A,,Clear,190,2013-01-18 22:53:00
6:53 PM,32.0,18.0,56,30.38,10.0,South,9.2,-,N/A,,Clear,190,2013-01-18 23:53:00
7:53 PM,32.0,19.0,59,30.36,10.0,SSW,12.7,-,N/A,,Clear,200,2013-01-19 00:53:00
8:53 PM,33.1,19.9,59,30.34,10.0,SSW,9.2,-,N/A,,Clear,200,2013-01-19 01:53:00
9:53 PM,34.0,21.0,59,30.31,10.0,SSW,11.5,-,N/A,,Clear,200,2013-01-19 02:53:00
10:53 PM,36.0,19.9,52,30.27,10.0,SSW,11.5,21.9,N/A,,Clear,210,2013-01-19 03:53:00
11:53 PM,36.0,19.0,50,30.25,10.0,SSW,12.7,21.9,N/A,,Clear,210,2013-01-19 04:53:00